Weather History for Midland, TX

Change the Weather History Date:

Thursday, May 23, 2013

  Actual Average Record
Temperature  
Mean Temperature 83 °F 76 °F  
Max Temperature 99 °F 89 °F 106 °F (1989)
Min Temperature 67 °F 62 °F 47 °F (1988)
Cooling Degree Days 18 11  
Month to date cooling degree days 198 187  
Year to date cooling degree days 352 295  
Growing Degree Days 34 (Base 50)    
Moisture  
Dew Point 57 °F    
Average Humidity 50    
Maximum Humidity 79    
Minimum Humidity 20    
Precipitation  
Precipitation 0.00 in 0.07 in 2.72 in (1992)
Month to date precipitation 0.01 1.15  
Year to date precipitation 1.54 3.67  
Sea Level Pressure  
Sea Level Pressure 29.80 in    
Wind  
Wind Speed 17 mph (South)    
Max Wind Speed 41 mph    
Max Gust Speed 49 mph    
Visibility 8 miles    
Events      
T = Trace of Precipitation, MM = Missing Value Source: NWS Daily Summary

Daily Weather History Graph

Daily Weather History Graph

Search for Another Location

Airport:

Trip Planner

Search our weather history database for the weather conditions in past years. The results will help you decide how hot, cold, wet, or windy it might be!

Date:

Astronomy

May. 23, 2013 Rise Set
Actual Time 6:46 AM CDT 8:44 PM CDT
Civil Twilight 6:19 AM CDT 9:12 PM CDT
Nautical Twilight 5:46 AM CDT 9:45 PM CDT
Astronomical Twilight 5:11 AM CDT 10:20 PM CDT
Moon 7:23 PM CDT (5/23) 5:27 AM CDT (5/23)
Length of Visible Light 14h 52m
Length of Day
13h 57m
Waxing Gibbous, 97% of the Moon is Illuminated
May 23
Waxing Gibbous
May 24
Full
May 31
Last Quarter
Jun 8
New
Jun 16
First Quarter

Hourly Weather History & Observations

Time (CDT) Temp. Heat Index Dew Point Humidity Pressure Visibility Wind Dir Wind Speed Gust Speed Precip Events Conditions
12:53 AM 79.0 °F - 53.1 °F 40% 29.70 in 10.0 mi SSE 13.8 mph - N/A   Clear
1:53 AM 79.0 °F - 57.0 °F 47% 29.71 in 10.0 mi SSE 17.3 mph - N/A   Clear
2:53 AM 78.1 °F - 59.0 °F 52% 29.70 in 10.0 mi SSE 17.3 mph - N/A   Clear
3:53 AM 77.0 °F - 62.1 °F 60% 29.72 in 9.0 mi South 16.1 mph 24.2 mph N/A   Clear
4:53 AM 75.0 °F - 64.0 °F 69% 29.73 in 8.0 mi SSE 17.3 mph - N/A   Clear
5:53 AM 73.0 °F - 64.0 °F 73% 29.75 in 8.0 mi SSE 11.5 mph - N/A   Clear
6:53 AM 72.0 °F - 64.0 °F 76% 29.77 in 6.0 mi South 11.5 mph - N/A   Haze
7:53 AM 73.0 °F - 64.9 °F 76% 29.78 in 6.0 mi South 15.0 mph - N/A   Haze
8:53 AM 75.9 °F - 66.9 °F 74% 29.79 in 5.0 mi South 20.7 mph 27.6 mph N/A   Haze
9:53 AM 79.0 °F - 66.9 °F 66% 29.81 in 6.0 mi South 18.4 mph - N/A   Haze
10:53 AM 84.0 °F 86.3 °F 66.0 °F 55% 29.80 in 7.0 mi South 13.8 mph 25.3 mph N/A   Clear
11:53 AM 89.1 °F 90.3 °F 64.0 °F 43% 29.79 in 9.0 mi South 16.1 mph 25.3 mph N/A   Clear
12:53 PM 91.9 °F 92.5 °F 62.1 °F 37% 29.78 in 7.0 mi South 12.7 mph - N/A   Clear
1:53 PM 93.9 °F 93.2 °F 59.0 °F 31% 29.76 in 10.0 mi South 15.0 mph 23.0 mph N/A   Clear
2:53 PM 97.0 °F 95.3 °F 55.9 °F 25% 29.73 in 10.0 mi SSE 16.1 mph 23.0 mph N/A   Clear
3:53 PM 97.0 °F - 48.9 °F 19% 29.70 in 10.0 mi SSE 12.7 mph 19.6 mph N/A   Clear
4:53 PM 93.0 °F 92.0 °F 57.9 °F 31% 29.69 in 10.0 mi SSE 24.2 mph 29.9 mph N/A   Clear
5:53 PM 89.1 °F 89.3 °F 62.1 °F 40% 29.70 in 10.0 mi South 23.0 mph 31.1 mph N/A   Clear
6:53 PM 88.0 °F 87.9 °F 61.0 °F 40% 29.75 in 9.0 mi SSW 18.4 mph 25.3 mph N/A   Clear
7:13 PM 86.0 °F - 51.8 °F 31% 29.92 in 3.0 mi NW 23.0 mph 32.2 mph N/A   Haze
7:23 PM 84.2 °F - 46.4 °F 27% 29.91 in 3.0 mi NW 18.4 mph 32.2 mph N/A   Haze
7:53 PM 82.9 °F - 45.0 °F 26% 29.80 in 10.0 mi NW 26.5 mph 34.5 mph N/A   Clear
8:53 PM 84.0 °F - 43.0 °F 24% 29.84 in 10.0 mi SSW 16.1 mph 24.2 mph N/A   Clear
9:34 PM 80.6 °F - 46.4 °F 30% 29.97 in 3.0 mi SW 41.4 mph 49.5 mph N/A   Haze
9:38 PM 80.6 °F - 48.2 °F 32% 29.96 in 2.5 mi SSW 33.4 mph 49.5 mph N/A   Haze
9:46 PM 78.8 °F - 50.0 °F 36% 29.96 in 3.0 mi SSW 33.4 mph 43.7 mph N/A   Haze
9:53 PM 78.1 °F - 50.0 °F 37% 29.82 in 5.0 mi SSW 35.7 mph 44.9 mph N/A   Haze
10:53 PM 77.0 °F - 48.9 °F 37% 29.92 in 10.0 mi South 4.6 mph - N/A   Clear
11:21 PM 69.8 °F - 57.2 °F 64% 30.07 in 10.0 mi East 12.7 mph - N/A   Clear
11:53 PM 70.0 °F - 55.9 °F 61% 29.96 in 10.0 mi ESE 9.2 mph - N/A   Clear